Precipitable_Water
0.49 0.40 0.38 0.37 0.21 0.22 0.19 0.22 0.29 0.27 0.28 0.35 0.36 0.33 0.31 0.31 0.26 0.21 0.55 0.75 0.80 0.79 0.86 0.96 1.01 1.04 1.09 1.10 1.11 1.15 1.21 1.33 1.42 1.50 1.53 1.54 1.56 1.55 1.57 1.52 1.52 1.44 1.35 1.36 1.33 1.28 1.33 1.34 1.30
0.41 0.34 0.38 0.30 0.16 0.12 0.16 0.26 0.25 0.28 0.31 0.35 0.33 0.33 0.31 0.27 0.42 0.46 0.52 0.73 0.83 0.84 0.89 0.97 1.05 1.07 1.09 1.08 1.12 1.19 1.23 1.30 1.42 1.50 1.52 1.53 1.54 1.58 1.59 1.57 1.53 1.49 1.44 1.37 1.27 1.26 1.33 1.26 1.20
0.33 0.41 0.26 0.19 0.16 0.10 0.15 0.25 0.27 0.30 0.32 0.33 0.30 0.33 0.32 0.31 0.47 0.52 0.63 0.74 0.85 0.88 0.91 0.94 1.05 1.07 1.07 1.09 1.13 1.22 1.29 1.31 1.40 1.50 1.56 1.57 1.62 1.57 1.57 1.49 1.46 1.41 1.36 1.26 1.23 1.22 1.21 1.17 1.15
0.28 0.30 0.26 0.16 0.12 0.17 0.23 0.26 0.31 0.28 0.30 0.32 0.32 0.27 0.35 0.46 0.46 0.55 0.65 0.79 0.81 0.82 0.91 0.99 1.07 1.06 1.08 1.12 1.15 1.20 1.28 1.35 1.40 1.51 1.60 1.69 1.61 1.53 1.50 1.50 1.48 1.36 1.21 1.20 1.24 1.17 1.13 1.14 1.11
0.31 0.27 0.16 0.14 0.13 0.16 0.21 0.29 0.30 0.26 0.28 0.29 0.30 0.27 0.31 0.45 0.59 0.65 0.69 0.77 0.75 0.82 0.92 1.02 1.07 1.08 1.06 1.11 1.13 1.19 1.22 1.30 1.38 1.41 1.53 1.62 1.80 1.66 1.54 1.56 1.52 1.35 1.22 1.18 1.29 1.23 1.12 1.09 1.03
0.20 0.23 0.13 0.10 0.13 0.16 0.20 0.24 0.28 0.28 0.29 0.30 0.29 0.29 0.32 0.50 0.55 0.64 0.75 0.77 0.83 0.80 0.94 1.04 1.11 1.14 1.07 1.13 1.13 1.12 1.16 1.23 1.27 1.28 1.28 1.36 1.53 1.54 1.57 1.50 1.54 1.34 1.22 1.30 1.21 1.12 1.14 1.05 0.99
0.19 0.18 0.13 0.13 0.13 0.14 0.18 0.25 0.27 0.28 0.28 0.29 0.33 0.28 0.35 0.42 0.56 0.71 0.78 0.89 0.92 0.91 0.93 1.03 1.10 1.18 1.13 1.11 1.13 1.10 1.12 1.16 1.18 1.20 1.16 1.28 1.27 1.31 1.32 1.39 1.52 1.35 1.30 1.30 1.13 1.09 1.05 1.03 0.89
0.26 0.22 0.16 0.15 0.13 0.14 0.20 0.22 0.28 0.29 0.28 0.34 0.37 0.30 0.32 0.47 0.64 0.70 0.78 0.86 0.94 0.95 0.95 1.02 1.08 1.17 1.16 1.15 1.16 1.16 1.15 1.17 1.14 1.12 1.16 1.27 1.28 1.26 1.37 1.38 1.54 1.44 1.45 1.35 1.14 0.99 0.92 0.87 0.85
0.37 0.20 0.15 0.15 0.15 0.17 0.23 0.21 0.28 0.33 0.30 0.32 0.34 0.34 0.38 0.47 0.61 0.64 0.70 0.75 0.82 0.89 0.97 1.01 1.06 1.12 1.14 1.18 1.17 1.22 1.24 1.22 1.20 1.18 1.18 1.21 1.24 1.25 1.33 1.40 1.51 1.45 1.49 1.37 1.18 0.96 0.88 0.95 1.01
0.31 0.22 0.20 0.24 0.22 0.20 0.23 0.24 0.25 0.27 0.26 0.29 0.32 0.35 0.41 0.50 0.54 0.53 0.59 0.60 0.70 0.77 0.86 0.99 1.02 1.07 1.12 1.16 1.18 1.20 1.26 1.29 1.28 1.27 1.25 1.23 1.24 1.28 1.31 1.40 1.54 1.47 1.53 1.30 1.12 0.95 0.91 1.00 1.07
0.34 0.23 0.27 0.27 0.27 0.28 0.26 0.26 0.28 0.26 0.25 0.31 0.31 0.34 0.41 0.44 0.50 0.53 0.55 0.60 0.60 0.72 0.86 0.94 0.99 1.08 1.12 1.10 1.17 1.19 1.23 1.26 1.34 1.35 1.32 1.28 1.32 1.39 1.40 1.43 1.42 1.48 1.47 1.26 1.13 1.06 1.02 1.02 1.09
0.29 0.32 0.32 0.30 0.31 0.31 0.29 0.32 0.30 0.31 0.30 0.35 0.37 0.38 0.39 0.42 0.48 0.51 0.56 0.59 0.63 0.72 0.83 0.97 1.02 1.03 1.11 1.12 1.13 1.18 1.19 1.25 1.30 1.30 1.36 1.34 1.44 1.49 1.48 1.42 1.54 1.47 1.45 1.18 1.15 1.02 1.01 1.06 1.11
0.31 0.33 0.35 0.35 0.35 0.34 0.35 0.32 0.32 0.32 0.37 0.39 0.38 0.39 0.39 0.42 0.46 0.56 0.64 0.67 0.73 0.74 0.82 0.91 1.00 1.02 1.07 1.10 1.11 1.14 1.15 1.21 1.29 1.27 1.41 1.48 1.56 1.52 1.54 1.49 1.51 1.50 1.42 1.09 1.11 1.01 0.98 0.99 1.03
0.36 0.36 0.35 0.37 0.36 0.37 0.35 0.33 0.36 0.34 0.39 0.39 0.40 0.39 0.40 0.43 0.48 0.53 0.59 0.61 0.67 0.70 0.79 0.93 1.00 1.03 1.07 1.12 1.15 1.14 1.15 1.16 1.20 1.30 1.42 1.52 1.56 1.56 1.56 1.52 1.50 1.50 1.41 1.16 1.04 0.97 0.95 0.94 1.05
0.34 0.29 0.31 0.31 0.33 0.33 0.36 0.28 0.28 0.35 0.37 0.35 0.37 0.40 0.42 0.43 0.46 0.46 0.48 0.53 0.60 0.64 0.78 0.88 0.99 1.05 1.07 1.17 1.23 1.16 1.10 1.14 1.17 1.33 1.51 1.55 1.58 1.60 1.57 1.55 1.49 1.44 1.41 1.12 0.99 0.98 0.97 0.99 1.10
0.28 0.28 0.23 0.29 0.31 0.32 0.32 0.19 0.29 0.34 0.31 0.29 0.30 0.32 0.36 0.37 0.39 0.41 0.46 0.50 0.55 0.63 0.69 0.86 1.01 1.05 1.11 1.21 1.24 1.12 1.01 1.10 1.22 1.37 1.49 1.58 1.57 1.62 1.57 1.55 1.50 1.48 1.42 1.01 0.97 0.95 0.93 1.02 1.04
0.26 0.21 0.22 0.23 0.28 0.28 0.28 0.18 0.23 0.27 0.23 0.21 0.24 0.26 0.27 0.28 0.30 0.36 0.43 0.47 0.51 0.62 0.71 0.80 0.97 1.02 1.09 1.22 1.21 1.05 0.97 1.14 1.24 1.35 1.45 1.50 1.57 1.63 1.57 1.55 1.54 1.46 1.34 0.94 0.94 0.95 0.92 0.99 0.96
0.20 0.18 0.20 0.20 0.24 0.23 0.19 0.16 0.19 0.17 0.17 0.18 0.20 0.21 0.23 0.23 0.23 0.30 0.39 0.46 0.53 0.66 0.77 0.84 0.97 1.06 1.11 1.20 1.17 0.99 1.00 1.19 1.29 1.35 1.42 1.47 1.59 1.59 1.60 1.55 1.50 1.35 1.34 0.92 0.89 0.93 1.00 1.00 0.95
0.22 0.21 0.19 0.21 0.21 0.16 0.13 0.11 0.13 0.15 0.17 0.18 0.19 0.19 0.19 0.19 0.22 0.28 0.37 0.50 0.63 0.73 0.82 0.85 0.92 1.07 1.08 1.12 1.04 0.86 0.90 1.11 1.25 1.37 1.39 1.46 1.54 1.54 1.59 1.53 1.49 1.35 1.31 0.89 0.88 1.00 0.98 0.97 0.99
0.21 0.20 0.19 0.18 0.16 0.15 0.14 0.13 0.17 0.19 0.19 0.20 0.20 0.20 0.20 0.20 0.23 0.26 0.37 0.54 0.65 0.73 0.83 0.88 0.95 1.03 1.09 1.14 1.05 0.92 0.97 1.10 1.27 1.32 1.38 1.44 1.53 1.52 1.50 1.48 1.47 1.32 1.26 0.95 0.86 0.95 0.95 0.94 0.93
0.17 0.15 0.15 0.14 0.18 0.20 0.20 0.16 0.15 0.18 0.19 0.22 0.23 0.23 0.22 0.24 0.26 0.27 0.37 0.53 0.66 0.74 0.83 0.89 0.97 1.01 1.11 1.17 1.03 0.95 1.00 1.07 1.17 1.24 1.26 1.36 1.54 1.52 1.53 1.52 1.49 1.36 1.17 0.89 0.70 0.77 0.80 0.78 0.92
0.18 0.21 0.19 0.18 0.21 0.16 0.21 0.11 0.14 0.16 0.19 0.21 0.19 0.20 0.22 0.30 0.40 0.39 0.39 0.51 0.63 0.76 0.90 0.97 1.03 1.03 1.14 1.17 0.96 0.86 0.84 0.85 1.07 1.18 1.28 1.31 1.44 1.52 1.50 1.46 1.38 1.28 1.21 0.92 0.74 0.81 0.81 0.81 0.83
0.18 0.22 0.21 0.22 0.21 0.20 0.17 0.14 0.15 0.17 0.15 0.17 0.19 0.21 0.33 0.41 0.43 0.48 0.53 0.59 0.70 0.81 0.88 0.97 1.04 1.08 1.15 1.15 0.96 0.87 0.85 0.93 1.08 1.19 1.27 1.32 1.39 1.47 1.50 1.44 1.40 1.30 1.28 1.07 0.76 0.76 0.78 0.86 0.85
0.26 0.23 0.21 0.21 0.18 0.12 0.15 0.15 0.11 0.14 0.17 0.19 0.24 0.32 0.40 0.43 0.45 0.52 0.62 0.69 0.73 0.86 0.88 0.96 1.01 1.07 1.16 1.14 0.96 0.86 0.84 0.90 0.96 1.10 1.15 1.30 1.40 1.43 1.46 1.45 1.38 1.32 1.26 1.18 0.86 0.81 0.82 0.89 0.93
0.25 0.21 0.15 0.13 0.13 0.11 0.17 0.16 0.13 0.17 0.21 0.27 0.32 0.35 0.38 0.48 0.49 0.56 0.62 0.75 0.84 0.87 0.88 0.94 1.01 1.01 1.13 1.10 0.92 0.86 0.88 0.91 0.98 1.04 1.14 1.23 1.32 1.38 1.40 1.43 1.41 1.39 1.34 1.30 1.12 0.93 0.92 0.93 0.97
0.20 0.19 0.13 0.10 0.10 0.12 0.20 0.14 0.15 0.23 0.28 0.34 0.39 0.41 0.46 0.47 0.55 0.59 0.67 0.72 0.91 0.92 0.90 0.94 0.98 1.02 1.08 1.05 0.84 0.85 0.89 0.91 0.97 1.06 1.16 1.26 1.31 1.36 1.43 1.44 1.43 1.42 1.37 1.36 1.31 1.13 1.02 1.04 1.05
0.24 0.21 0.27 0.21 0.21 0.17 0.17 0.18 0.23 0.27 0.32 0.37 0.38 0.40 0.40 0.41 0.47 0.57 0.67 0.74 0.89 0.97 0.94 0.95 0.99 1.05 1.08 1.01 0.83 0.83 0.87 0.89 0.93 1.04 1.16 1.26 1.35 1.40 1.43 1.49 1.47 1.44 1.41 1.40 1.34 1.26 1.14 1.15 1.19
0.32 0.34 0.22 0.23 0.16 0.13 0.15 0.17 0.18 0.27 0.31 0.34 0.36 0.37 0.40 0.44 0.44 0.52 0.65 0.76 0.85 0.98 1.00 1.00 1.04 1.10 1.12 0.95 0.81 0.84 0.86 0.92 0.98 1.08 1.16 1.26 1.33 1.38 1.42 1.46 1.47 1.51 1.46 1.44 1.42 1.35 1.25 1.20 1.24
0.28 0.26 0.29 0.28 0.26 0.17 0.14 0.17 0.34 0.29 0.32 0.34 0.37 0.41 0.42 0.43 0.46 0.58 0.65 0.82 0.90 1.01 1.03 0.99 1.04 1.13 1.11 0.90 0.81 0.84 0.87 0.94 1.00 1.06 1.11 1.19 1.31 1.39 1.43 1.45 1.44 1.44 1.42 1.45 1.42 1.38 1.34 1.26 1.23
0.33 0.29 0.28 0.19 0.20 0.25 0.24 0.19 0.34 0.32 0.32 0.32 0.38 0.45 0.46 0.49 0.52 0.69 0.77 0.91 0.97 1.03 1.04 1.01 1.07 1.15 1.08 0.88 0.83 0.86 0.92 0.96 0.97 1.01 1.05 1.10 1.20 1.33 1.36 1.41 1.41 1.41 1.42 1.45 1.38 1.36 1.37 1.32 1.25
Wind_Speed
9 7 7 7 6 4 6 7 7 6 6 7 6 6 7 7 8 11 10 7 8 8 9 10 10 10 9 10 10 10 10 10 12 12 12 13 14 14 14 14 14 15 16 17 17 16 16 15 15
8 8 7 7 5 5 8 6 6 6 9 9 8 9 9 10 11 12 9 8 9 8 9 9 9 9 8 9 10 10 10 11 13 13 14 14 14 14 14 14 14 14 16 17 18 18 17 16 16
9 9 8 7 7 8 8 7 5 7 9 8 9 10 11 12 12 12 10 8 9 9 9 8 8 8 8 8 9 10 11 12 13 15 16 16 16 15 15 14 14 14 15 18 19 19 18 17 16
10 10 9 9 12 11 10 8 9 11 10 9 10 11 11 12 12 12 10 9 9 9 8 8 9 8 8 8 9 10 11 13 14 16 18 17 16 16 16 15 14 15 15 18 19 19 19 18 17
12 11 11 11 13 13 13 14 12 13 13 14 12 14 13 14 14 12 11 10 11 10 10 9 9 9 9 9 10 11 12 13 15 17 18 15 21 15 15 16 14 16 16 18 20 19 20 19 18
13 13 13 14 15 14 14 16 13 13 13 13 11 12 14 15 15 13 11 12 12 11 11 11 10 10 10 10 10 12 13 14 16 17 18 21 21 17 16 14 17 15 16 17 20 21 20 19 19
16 15 17 17 16 16 16 14 14 13 12 11 14 13 15 17 15 14 13 13 12 13 13 13 12 12 11 12 12 13 14 15 17 19 20 21 22 21 21 18 17 16 16 18 20 22 21 20 19
19 18 18 18 16 18 16 17 16 13 15 15 12 13 15 16 16 16 16 15 15 15 15 16 15 14 14 13 14 14 15 16 19 20 21 20 21 22 23 21 22 19 17 17 21 23 22 21 20
21 20 22 21 17 18 17 15 18 18 19 17 16 17 20 19 18 18 18 18 18 18 18 18 18 17 16 16 16 16 17 18 20 21 22 23 24 24 23 22 19 22 20 18 23 24 23 22 21
24 24 26 24 22 23 22 21 23 20 20 21 21 19 20 20 20 18 19 20 20 20 21 21 20 19 18 18 17 18 19 20 21 23 24 24 25 26 25 24 25 25 21 20 24 25 24 23 21
27 28 26 25 25 25 24 24 25 23 23 22 24 23 21 22 22 22 22 23 23 23 23 23 21 20 19 19 19 19 20 21 23 25 25 26 26 26 26 26 26 24 24 22 25 25 24 23 22
28 29 28 27 27 26 26 25 26 26 26 26 26 26 24 24 24 25 25 26 26 25 26 25 23 21 20 19 20 20 22 23 25 27 27 28 27 26 27 27 28 27 26 25 26 26 25 23 22
29 29 29 29 29 29 28 28 28 27 26 26 27 26 27 26 26 26 28 29 29 28 28 26 24 22 21 20 20 21 23 25 26 27 28 27 28 28 28 30 30 29 28 28 28 28 25 23 23
25 25 27 27 28 27 27 27 26 25 25 27 27 26 25 26 27 27 28 31 30 31 30 29 27 24 23 21 20 22 24 25 26 25 24 25 28 30 32 32 32 32 30 30 32 29 26 25 24
27 27 27 27 26 27 25 28 27 27 26 25 24 25 26 27 28 28 30 32 31 32 31 30 28 26 24 22 21 22 24 24 21 20 22 23 27 32 35 35 33 34 32 32 34 31 28 26 25
24 24 24 24 23 24 23 31 22 21 21 23 25 26 26 28 29 31 32 33 32 29 29 29 29 26 24 22 21 22 22 19 17 19 21 25 26 32 35 37 36 38 36 35 35 33 29 27 25
26 27 26 24 22 22 25 28 23 19 24 26 25 26 26 28 31 32 33 33 31 28 27 27 27 26 24 22 21 20 19 18 18 21 22 26 30 36 35 39 38 40 38 37 36 35 32 28 26
24 24 25 24 22 22 25 29 27 27 26 26 25 26 28 30 31 32 32 32 29 26 26 24 25 25 23 20 19 19 18 18 18 20 23 25 29 35 40 40 39 41 40 38 38 36 32 29 27
24 25 26 24 24 24 29 32 29 26 25 26 25 26 28 30 30 31 32 29 25 24 24 24 23 24 22 19 18 18 17 17 17 18 18 19 26 39 42 41 41 41 40 38 38 37 34 30 29
28 28 31 26 25 24 25 32 30 27 25 25 24 26 27 29 31 31 30 26 24 24 25 25 24 24 22 19 18 17 15 15 15 15 13 11 19 31 37 42 42 42 39 37 37 38 35 31 31
27 27 24 25 23 25 26 30 24 23 22 22 22 24 27 28 30 29 25 24 24 25 25 26 25 24 22 19 17 15 14 13 13 12 10 8 21 27 31 38 41 42 39 36 37 37 36 32 33
30 27 28 27 21 22 20 27 23 20 18 19 25 24 25 26 27 28 25 24 25 25 24 25 25 24 22 19 17 15 14 13 12 12 11 11 15 29 28 37 39 39 36 36 36 36 36 35 33
26 23 24 24 23 22 22 22 18 18 23 20 21 23 23 23 26 26 25 25 24 23 24 24 25 25 22 20 17 15 14 14 12 12 13 15 18 20 32 38 38 37 36 35 36 35 35 34 34
21 21 20 20 21 24 22 20 27 18 17 21 19 21 22 24 26 25 23 22 24 22 23 26 26 25 23 20 18 16 14 13 13 14 15 17 19 22 26 34 38 38 36 35 36 35 35 35 34
21 19 19 19 20 23 18 20 28 24 22 19 21 22 23 23 24 25 22 19 24 24 24 25 27 26 24 21 18 16 15 14 14 15 16 18 22 24 27 31 36 38 38 37 37 37 36 35 34
23 24 21 20 20 20 20 22 20 19 19 21 20 21 22 23 24 24 22 18 22 26 25 25 28 26 24 21 18 17 16 15 16 16 16 19 22 25 28 33 34 38 40 38 38 38 38 37 36
20 20 20 19 20 19 21 23 23 19 18 19 21 22 22 24 25 25 22 21 21 25 25 26 28 27 25 21 18 17 15 14 15 15 16 19 22 23 28 35 38 40 40 40 39 39 38 39 37
17 18 17 18 18 21 20 20 19 18 20 21 22 23 24 25 27 26 22 21 23 24 25 26 29 28 24 21 18 17 15 14 13 13 14 17 20 23 27 33 38 43 43 41 40 37 37 38 37
18 17 16 16 17 19 19 19 16 15 18 22 23 24 25 27 28 25 22 22 23 24 25 26 28 28 24 22 19 17 15 13 12 12 11 13 15 17 20 27 33 39 41 42 39 39 36 36 35
17 17 17 17 18 18 19 22 22 19 21 23 25 25 25 25 26 21 19 19 21 24 25 27 28 28 24 22 19 18 15 14 12 11 10 10 11 10 10 17 26 31 33 40 38 39 35 31 30
Wind_Direction
251 256 266 281 287 296 278 279 275 284 279 269 268 263 264 290 297 304 311 286 293 296 297 295 294 288 280 265 254 250 246 238 228 221 218 217 218 218 217 216 217 217 214 211 209 208 207 205 203
244 251 266 270 272 282 274 274 264 267 276 292 269 270 272 288 300 309 301 283 290 293 298 295 294 289 282 264 253 248 244 237 228 222 222 221 220 218 214 213 217 218 215 213 212 210 208 205 203
246 253 261 262 262 253 257 247 260 288 287 273 284 274 279 287 293 302 296 283 287 292 294 292 294 289 280 267 256 249 245 239 231 227 225 222 220 221 217 218 220 221 221 217 212 210 208 204 201
248 255 260 255 255 260 254 252 280 297 294 269 265 283 289 291 299 292 286 280 284 289 287 293 296 290 277 268 259 251 247 241 234 230 226 224 221 219 222 220 222 223 225 217 211 206 203 200 199
252 254 257 259 260 261 259 263 275 286 284 274 268 271 284 294 296 293 281 273 279 281 282 289 292 293 277 269 263 253 249 244 236 233 235 233 227 219 220 219 229 229 227 217 208 202 199 199 199
254 252 256 257 257 259 262 263 270 280 286 282 268 274 283 294 295 285 282 275 277 273 277 281 286 288 280 270 267 259 254 248 243 244 238 250 228 233 224 228 243 228 218 210 205 201 198 198 197
247 252 252 257 259 262 257 257 258 272 280 284 279 276 285 293 289 286 285 278 277 275 274 278 279 280 279 271 269 264 260 254 248 247 247 243 237 235 231 253 225 224 212 209 205 200 198 196 193
249 252 250 253 255 260 259 263 256 271 272 282 287 277 286 297 287 284 279 277 274 273 273 273 275 275 274 271 267 266 264 260 253 251 248 242 235 238 237 238 236 223 213 213 206 200 196 194 190
248 254 252 252 249 249 254 268 258 268 269 275 274 280 284 288 289 282 277 276 273 272 272 271 272 271 272 269 267 267 267 265 257 253 248 245 242 239 241 231 224 211 217 216 202 196 193 192 190
247 252 251 254 253 254 254 263 267 271 273 271 276 279 285 286 285 281 277 276 275 272 271 269 269 268 272 269 267 269 269 268 261 256 251 246 244 240 231 229 222 222 218 207 196 193 191 191 191
251 253 255 256 254 257 257 258 262 265 267 265 274 277 283 285 281 278 277 277 274 273 270 267 266 267 270 268 268 272 273 271 264 259 252 247 242 234 230 223 216 211 206 200 193 192 192 191 193
254 255 254 257 256 256 257 260 260 259 263 267 268 274 279 280 278 277 276 277 275 274 269 265 261 264 268 271 270 274 275 275 269 262 252 248 237 232 224 218 211 208 204 200 196 195 193 195 196
254 256 255 256 257 257 260 259 262 261 265 268 271 272 274 276 278 278 278 280 278 273 269 260 258 261 265 271 272 275 278 279 272 263 252 241 232 228 222 215 211 209 206 203 199 195 195 193 191
256 254 257 256 256 257 257 258 259 263 264 268 271 271 272 274 276 279 281 281 279 270 264 257 256 258 262 268 273 277 283 283 272 260 243 234 232 229 222 215 211 209 203 201 196 195 193 189 188
257 260 259 255 256 257 258 260 257 264 266 267 269 272 274 274 276 279 282 281 282 270 260 253 252 254 257 265 275 280 287 284 268 248 238 237 239 229 220 215 211 203 202 197 194 192 191 193 193
258 258 259 260 254 256 248 259 258 264 270 273 274 274 275 277 277 279 281 282 281 272 254 251 249 249 254 262 273 281 288 279 259 246 245 243 246 224 218 213 211 207 201 196 195 195 195 195 196
257 258 256 261 254 254 249 262 259 264 277 274 274 278 280 282 282 280 280 280 277 267 252 248 242 243 250 259 273 280 285 272 261 253 255 258 246 222 218 210 208 200 199 199 198 197 197 198 198
253 256 256 253 257 253 257 259 263 270 270 273 277 279 282 284 283 285 281 278 271 261 246 242 240 240 246 256 270 278 281 271 264 261 268 268 237 219 209 202 198 199 198 197 196 197 199 200 199
253 253 255 256 258 264 262 263 265 266 270 275 279 282 286 286 288 288 283 275 264 251 241 238 236 237 241 253 266 275 277 271 265 267 274 269 230 216 204 202 199 195 195 196 197 199 201 201 202
250 255 258 259 258 253 259 263 265 266 268 271 278 285 287 289 292 291 284 266 257 244 240 237 236 235 239 250 263 274 273 271 266 268 266 261 204 191 195 195 196 195 196 198 200 202 203 205 205
247 248 249 254 262 260 264 263 258 265 269 274 282 284 287 290 294 295 285 264 250 245 241 237 233 233 236 245 259 268 269 268 263 257 247 225 191 185 191 194 196 196 199 201 201 202 204 207 209
250 245 250 256 254 256 259 266 258 262 267 279 286 287 289 293 298 295 285 264 246 243 238 234 231 231 234 241 252 258 262 262 258 243 236 206 197 199 198 193 193 196 200 203 205 207 208 209 211
246 246 245 250 252 257 253 258 257 272 281 281 289 291 291 295 298 300 288 261 244 240 233 230 229 229 231 237 247 253 258 255 248 239 229 220 210 202 202 199 200 203 205 206 207 208 209 210 212
244 244 247 250 251 255 247 251 267 265 266 283 289 291 292 295 300 298 293 261 239 236 232 230 227 227 230 235 243 248 251 248 243 236 230 223 214 207 203 204 207 205 209 210 209 211 212 213 215
240 241 249 252 248 252 246 252 259 271 278 282 289 290 289 295 300 304 292 267 239 232 234 232 226 226 227 232 238 243 246 245 241 238 235 227 221 216 212 211 213 213 213 213 214 215 216 217 220
237 235 239 243 246 253 258 254 257 269 280 285 285 290 292 296 298 302 293 268 244 233 235 231 222 222 222 228 234 238 243 244 243 243 240 231 226 224 224 220 218 217 216 217 218 219 221 222 224
233 234 241 245 254 256 253 262 269 277 281 287 291 293 295 295 296 295 289 263 251 233 234 226 218 217 220 226 231 235 239 244 243 244 241 236 233 233 233 229 224 221 219 220 220 222 225 224 227
239 238 239 247 246 253 255 261 262 280 283 285 287 290 293 296 298 291 279 265 251 234 230 221 214 215 218 222 227 230 235 240 242 244 240 240 239 242 240 234 227 222 222 220 221 223 226 226 229
242 243 244 244 250 254 260 258 254 275 284 285 286 288 293 295 300 288 275 263 247 229 223 216 212 212 217 219 221 224 229 232 237 238 243 245 242 246 246 233 225 218 218 218 221 221 225 227 231
240 243 247 244 246 250 254 256 254 273 285 290 287 289 292 295 300 284 276 261 239 223 220 215 211 212 216 216 216 219 222 225 229 235 240 242 239 235 240 223 214 213 216 217 219 220 224 225 226